Time,TemperatureF,DewpointF,PressureIn,WindDirection,WindDirectionDegrees,WindSpeedMPH,WindSpeedGustMPH,Humidity,HourlyPrecipIn,Conditions,Clouds,dailyrainin,SoftwareType,DateUTC
2013-12-17 00:02:00,55.8,45.4,30.07,SW,223,0.0,3.0,68,0.00,,,0.00,Wunderground v.1.15,2013-12-17 08:02:00,
2013-12-17 00:12:00,55.7,44.9,30.06,SW,223,1.0,1.0,67,0.00,,,0.00,Wunderground v.1.15,2013-12-17 08:12:00,
2013-12-17 00:22:00,55.8,45.0,30.06,SW,223,1.0,1.0,67,0.00,,,0.00,Wunderground v.1.15,2013-12-17 08:22:00,
2013-12-17 00:32:00,55.8,45.0,30.06,SW,223,1.0,1.0,67,0.00,,,0.00,Wunderground v.1.15,2013-12-17 08:32:00,
2013-12-17 00:42:00,55.5,44.7,30.06,SW,223,1.0,3.0,67,0.00,,,0.00,Wunderground v.1.15,2013-12-17 08:42:00,
2013-12-17 00:52:00,56.0,44.0,30.05,SW,223,1.0,1.0,64,0.00,,,0.00,Wunderground v.1.15,2013-12-17 08:52:00,
2013-12-17 01:02:00,56.8,43.5,30.06,SW,223,1.0,1.0,61,0.00,,,0.00,Wunderground v.1.15,2013-12-17 09:02:00,
2013-12-17 01:12:00,56.9,43.2,30.07,SW,223,1.0,3.0,60,0.00,,,0.00,Wunderground v.1.15,2013-12-17 09:12:00,
2013-12-17 01:17:00,56.8,43.1,30.07,SW,223,1.0,3.0,60,0.00,,,0.00,Wunderground v.1.15,2013-12-17 09:17:00,
2013-12-17 01:22:00,56.7,43.4,30.07,SW,223,1.0,1.0,61,0.00,,,0.00,Wunderground v.1.15,2013-12-17 09:22:00,
2013-12-17 01:27:00,56.5,43.6,30.07,SW,223,1.0,1.0,62,0.00,,,0.00,Wunderground v.1.15,2013-12-17 09:27:00,
2013-12-17 01:37:00,55.7,44.1,30.07,SW,223,0.0,2.0,65,0.00,,,0.00,Wunderground v.1.15,2013-12-17 09:37:00,
2013-12-17 01:42:00,55.4,43.8,30.07,SW,223,0.0,0.0,65,0.00,,,0.00,Wunderground v.1.15,2013-12-17 09:42:00,
2013-12-17 01:52:00,54.8,44.0,30.07,SW,223,0.0,0.0,67,0.00,,,0.00,Wunderground v.1.15,2013-12-17 09:52:00,
2013-12-17 02:02:00,54.0,43.7,30.06,SW,223,0.0,3.0,68,0.00,,,0.00,Wunderground v.1.15,2013-12-17 10:02:00,
2013-12-17 02:07:00,53.7,43.8,30.06,SW,223,0.0,3.0,69,0.00,,,0.00,Wunderground v.1.15,2013-12-17 10:07:00,
2013-12-17 02:17:00,53.1,43.6,30.06,SW,223,0.0,3.0,70,0.00,,,0.00,Wunderground v.1.15,2013-12-17 10:17:00,
2013-12-17 02:22:00,52.8,43.7,30.06,SW,223,1.0,1.0,71,0.00,,,0.00,Wunderground v.1.15,2013-12-17 10:22:00,
2013-12-17 02:32:00,52.4,43.6,30.06,SW,223,0.0,0.0,72,0.00,,,0.00,Wunderground v.1.15,2013-12-17 10:32:00,
2013-12-17 02:42:00,52.0,43.6,30.06,SW,223,0.0,0.0,73,0.00,,,0.00,Wunderground v.1.15,2013-12-17 10:42:00,
2013-12-17 02:52:00,51.6,43.6,30.05,SW,223,0.0,0.0,74,0.00,,,0.00,Wunderground v.1.15,2013-12-17 10:52:00,
2013-12-17 03:02:00,51.3,43.6,30.05,SW,223,0.0,4.0,75,0.00,,,0.00,Wunderground v.1.15,2013-12-17 11:02:00,
2013-12-17 03:12:00,51.0,43.4,30.04,SW,223,0.0,4.0,75,0.00,,,0.00,Wunderground v.1.15,2013-12-17 11:12:00,
2013-12-17 03:22:00,50.7,43.4,30.04,SW,223,0.0,0.0,76,0.00,,,0.00,Wunderground v.1.15,2013-12-17 11:22:00,
2013-12-17 03:32:00,50.6,43.7,30.04,SW,223,0.0,0.0,77,0.00,,,0.00,Wunderground v.1.15,2013-12-17 11:32:00,
2013-12-17 03:37:00,50.5,43.6,30.04,SW,223,0.0,2.0,77,0.00,,,0.00,Wunderground v.1.15,2013-12-17 11:37:00,
2013-12-17 03:47:00,50.8,43.5,30.05,SW,223,0.0,2.0,76,0.00,,,0.00,Wunderground v.1.15,2013-12-17 11:47:00,
2013-12-17 03:52:00,50.8,43.5,30.05,SW,223,0.0,0.0,76,0.00,,,0.00,Wunderground v.1.15,2013-12-17 11:52:00,
2013-12-17 04:02:00,50.6,43.3,30.05,SW,223,0.0,3.0,76,0.00,,,0.00,Wunderground v.1.15,2013-12-17 12:02:00,
2013-12-17 04:12:00,50.3,43.4,30.05,SW,223,0.0,3.0,77,0.00,,,0.00,Wunderground v.1.15,2013-12-17 12:12:00,
2013-12-17 04:22:00,50.0,43.1,30.04,SW,223,0.0,0.0,77,0.00,,,0.00,Wunderground v.1.15,2013-12-17 12:22:00,
2013-12-17 04:32:00,49.7,42.8,30.05,SW,223,0.0,0.0,77,0.00,,,0.00,Wunderground v.1.15,2013-12-17 12:32:00,
2013-12-17 04:42:00,49.4,42.8,30.04,SW,223,0.0,0.0,78,0.00,,,0.00,Wunderground v.1.15,2013-12-17 12:42:00,
2013-12-17 04:52:00,49.1,42.9,30.04,SW,223,0.0,0.0,79,0.00,,,0.00,Wunderground v.1.15,2013-12-17 12:52:00,
2013-12-17 05:02:00,48.9,42.7,30.04,SW,223,0.0,3.0,79,0.00,,,0.00,Wunderground v.1.15,2013-12-17 13:02:00,
2013-12-17 05:12:00,48.9,42.7,30.04,SW,223,0.0,3.0,79,0.00,,,0.00,Wunderground v.1.15,2013-12-17 13:12:00,
2013-12-17 05:22:00,48.9,42.7,30.05,SW,223,0.0,0.0,79,0.00,,,0.00,Wunderground v.1.15,2013-12-17 13:22:00,
2013-12-17 05:27:00,48.9,42.7,30.05,SW,223,0.0,1.0,79,0.00,,,0.00,Wunderground v.1.15,2013-12-17 13:27:00,
2013-12-17 05:37:00,48.7,42.5,30.05,SW,223,0.0,0.0,79,0.00,,,0.00,Wunderground v.1.15,2013-12-17 13:37:00,
2013-12-17 05:47:00,48.7,42.5,30.05,SW,223,0.0,0.0,79,0.00,,,0.00,Wunderground v.1.15,2013-12-17 13:47:00,
2013-12-17 05:52:00,48.6,42.4,30.05,SW,223,0.0,0.0,79,0.00,,,0.00,Wunderground v.1.15,2013-12-17 13:52:00,
2013-12-17 06:02:00,48.4,42.5,30.05,SW,223,0.0,3.0,80,0.00,,,0.00,Wunderground v.1.15,2013-12-17 14:02:00,
2013-12-17 06:12:00,48.3,42.4,30.05,SW,223,0.0,3.0,80,0.00,,,0.00,Wunderground v.1.15,2013-12-17 14:12:00,
2013-12-17 06:22:00,48.1,42.5,30.06,SW,223,0.0,0.0,81,0.00,,,0.00,Wunderground v.1.15,2013-12-17 14:22:00,
2013-12-17 06:32:00,48.2,42.6,30.06,SW,223,0.0,0.0,81,0.00,,,0.00,Wunderground v.1.15,2013-12-17 14:32:00,
2013-12-17 06:42:00,48.3,42.4,30.06,SW,223,0.0,0.0,80,0.00,,,0.00,Wunderground v.1.15,2013-12-17 14:42:00,
2013-12-17 06:52:00,48.4,42.5,30.07,SW,223,0.0,0.0,80,0.00,,,0.00,Wunderground v.1.15,2013-12-17 14:52:00,
2013-12-17 07:02:00,48.4,42.8,30.07,SW,223,0.0,3.0,81,0.00,,,0.00,Wunderground v.1.15,2013-12-17 15:02:00,
2013-12-17 07:12:00,48.6,42.7,30.07,SW,223,1.0,1.0,80,0.00,,,0.00,Wunderground v.1.15,2013-12-17 15:12:00,
2013-12-17 07:22:00,48.8,42.9,30.07,SW,223,0.0,0.0,80,0.00,,,0.00,Wunderground v.1.15,2013-12-17 15:22:00,
2013-12-17 07:32:00,49.2,43.3,30.08,SW,223,1.0,2.0,80,0.00,,,0.00,Wunderground v.1.15,2013-12-17 15:32:00,
2013-12-17 07:42:00,49.8,43.5,30.08,SW,223,0.0,1.0,79,0.00,,,0.00,Wunderground v.1.15,2013-12-17 15:42:00,
2013-12-17 07:47:00,50.3,44.0,30.08,SW,223,1.0,2.0,79,0.00,,,0.00,Wunderground v.1.15,2013-12-17 15:47:00,
2013-12-17 07:57:00,51.5,43.8,30.08,SW,223,2.0,2.0,75,0.00,,,0.00,Wunderground v.1.15,2013-12-17 15:57:00,
2013-12-17 08:07:00,53.3,44.9,30.08,SW,223,1.0,2.0,73,0.00,,,0.00,Wunderground v.1.15,2013-12-17 16:07:00,
2013-12-17 08:17:00,55.1,45.1,30.08,SW,223,0.0,2.0,69,0.00,,,0.00,Wunderground v.1.15,2013-12-17 16:17:00,
2013-12-17 08:22:00,55.5,45.1,30.08,SW,223,0.0,0.0,68,0.00,,,0.00,Wunderground v.1.15,2013-12-17 16:22:00,
2013-12-17 08:32:00,56.3,45.9,30.08,SW,223,0.0,0.0,68,0.00,,,0.00,Wunderground v.1.15,2013-12-17 16:32:00,
2013-12-17 08:42:00,57.5,45.8,30.08,SW,223,0.0,0.0,65,0.00,,,0.00,Wunderground v.1.15,2013-12-17 16:42:00,
2013-12-17 08:52:00,59.5,45.6,30.09,SW,223,0.0,0.0,60,0.00,,,0.00,Wunderground v.1.15,2013-12-17 16:52:00,
2013-12-17 08:57:00,60.6,46.2,30.09,SW,223,0.0,0.0,59,0.00,,,0.00,Wunderground v.1.15,2013-12-17 16:57:00,
2013-12-17 09:07:00,63.1,45.7,30.09,SW,223,0.0,3.0,53,0.00,,,0.00,Wunderground v.1.15,2013-12-17 17:07:00,
2013-12-17 09:17:00,63.9,45.9,30.09,SW,223,2.0,3.0,52,0.00,,,0.00,Wunderground v.1.15,2013-12-17 17:17:00,
2013-12-17 09:27:00,65.6,48.5,30.10,SW,223,0.0,3.0,54,0.00,,,0.00,Wunderground v.1.15,2013-12-17 17:27:00,
2013-12-17 09:37:00,67.2,49.5,30.10,SW,223,1.0,2.0,53,0.00,,,0.00,Wunderground v.1.15,2013-12-17 17:37:00,
2013-12-17 09:47:00,68.1,50.3,30.10,SW,223,1.0,2.0,53,0.00,,,0.00,Wunderground v.1.15,2013-12-17 17:47:00,
2013-12-17 09:52:00,68.3,50.5,30.10,SW,223,1.0,2.0,53,0.00,,,0.00,Wunderground v.1.15,2013-12-17 17:52:00,
2013-12-17 10:02:00,67.6,49.9,30.10,SW,223,2.0,4.0,53,0.00,,,0.00,Wunderground v.1.15,2013-12-17 18:02:00,
2013-12-17 10:12:00,67.3,49.6,30.10,SW,225,3.0,4.0,53,0.00,,,0.00,Wunderground v.1.15,2013-12-17 18:12:00,
2013-12-17 10:22:00,67.6,49.3,30.10,SW,225,3.0,3.0,52,0.00,,,0.00,Wunderground v.1.15,2013-12-17 18:22:00,
2013-12-17 10:32:00,69.1,49.7,30.10,SW,225,1.0,2.0,50,0.00,,,0.00,Wunderground v.1.15,2013-12-17 18:32:00,
2013-12-17 10:42:00,70.0,48.8,30.10,SW,225,2.0,3.0,47,0.00,,,0.00,Wunderground v.1.15,2013-12-17 18:42:00,
2013-12-17 10:52:00,70.1,48.4,30.10,SW,225,3.0,3.0,46,0.00,,,0.00,Wunderground v.1.15,2013-12-17 18:52:00,
2013-12-17 11:02:00,71.0,48.0,30.09,SW,225,1.0,5.0,44,0.00,,,0.00,Wunderground v.1.15,2013-12-17 19:02:00,
2013-12-17 11:12:00,72.5,47.5,30.09,SW,219,1.0,5.0,41,0.00,,,0.00,Wunderground v.1.15,2013-12-17 19:12:00,
2013-12-17 11:22:00,74.0,48.1,30.08,SW,217,1.0,3.0,40,0.00,,,0.00,Wunderground v.1.15,2013-12-17 19:22:00,
2013-12-17 11:27:00,74.3,47.7,30.08,SW,217,2.0,3.0,39,0.00,,,0.00,Wunderground v.1.15,2013-12-17 19:27:00,
2013-12-17 11:32:00,74.3,48.4,30.07,SW,217,1.0,1.0,40,0.00,,,0.00,Wunderground v.1.15,2013-12-17 19:32:00,
2013-12-17 11:42:00,75.0,47.0,30.07,SW,217,2.0,2.0,37,0.00,,,0.00,Wunderground v.1.15,2013-12-17 19:42:00,
2013-12-17 11:52:00,75.1,46.3,30.06,SW,217,1.0,1.0,36,0.00,,,0.00,Wunderground v.1.15,2013-12-17 19:52:00,
2013-12-17 12:02:00,75.4,45.8,30.05,SW,217,0.0,6.0,35,0.00,,,0.00,Wunderground v.1.15,2013-12-17 20:02:00,
2013-12-17 12:12:00,75.2,45.7,30.05,SW,216,1.0,6.0,35,0.00,,,0.00,Wunderground v.1.15,2013-12-17 20:12:00,
2013-12-17 12:22:00,75.5,46.7,30.05,SW,216,1.0,2.0,36,0.00,,,0.00,Wunderground v.1.15,2013-12-17 20:22:00,
2013-12-17 12:27:00,75.8,46.9,30.04,SW,216,1.0,2.0,36,0.00,,,0.00,Wunderground v.1.15,2013-12-17 20:27:00,
2013-12-17 12:32:00,75.8,46.2,30.04,SW,216,1.0,1.0,35,0.00,,,0.00,Wunderground v.1.15,2013-12-17 20:32:00,
2013-12-17 12:42:00,75.7,45.3,30.04,SW,215,1.0,3.0,34,0.00,,,0.00,Wunderground v.1.15,2013-12-17 20:42:00,
2013-12-17 12:52:00,76.1,45.7,30.03,SW,215,1.0,1.0,34,0.00,,,0.00,Wunderground v.1.15,2013-12-17 20:52:00,
2013-12-17 13:02:00,76.7,45.4,30.02,South,179,1.0,4.0,33,0.00,,,0.00,Wunderground v.1.15,2013-12-17 21:02:00,
2013-12-17 13:07:00,76.7,45.4,30.02,South,173,1.0,4.0,33,0.00,,,0.00,Wunderground v.1.15,2013-12-17 21:07:00,
2013-12-17 13:17:00,77.4,46.0,30.01,South,173,1.0,4.0,33,0.00,,,0.00,Wunderground v.1.15,2013-12-17 21:17:00,
2013-12-17 13:27:00,77.6,45.4,30.01,East,101,1.0,3.0,32,0.00,,,0.00,Wunderground v.1.15,2013-12-17 21:27:00,
2013-12-17 13:37:00,77.1,45.8,30.01,ESE,111,1.0,2.0,33,0.00,,,0.00,Wunderground v.1.15,2013-12-17 21:37:00,
2013-12-17 13:42:00,77.1,46.6,30.01,ESE,111,1.0,1.0,34,0.00,,,0.00,Wunderground v.1.15,2013-12-17 21:42:00,
2013-12-17 13:52:00,77.1,47.3,30.01,ESE,115,1.0,1.0,35,0.00,,,0.00,Wunderground v.1.15,2013-12-17 21:52:00,
2013-12-17 14:02:00,77.0,45.7,30.01,East,90,1.0,4.0,33,0.00,,,0.00,Wunderground v.1.15,2013-12-17 22:02:00,
2013-12-17 14:12:00,77.1,46.6,30.00,East,90,1.0,4.0,34,0.00,,,0.00,Wunderground v.1.15,2013-12-17 22:12:00,
2013-12-17 14:22:00,77.0,44.0,30.00,East,99,1.0,3.0,31,0.00,,,0.00,Wunderground v.1.15,2013-12-17 22:22:00,
2013-12-17 14:32:00,77.0,44.0,30.00,East,100,1.0,1.0,31,0.00,,,0.00,Wunderground v.1.15,2013-12-17 22:32:00,
2013-12-17 14:42:00,76.9,45.6,30.00,SE,126,1.0,1.0,33,0.00,,,0.00,Wunderground v.1.15,2013-12-17 22:42:00,
2013-12-17 14:52:00,77.3,45.9,30.00,SE,133,1.0,1.0,33,0.00,,,0.00,Wunderground v.1.15,2013-12-17 22:52:00,
2013-12-17 15:02:00,77.5,43.6,30.00,SE,142,1.0,4.0,30,0.00,,,0.00,Wunderground v.1.15,2013-12-17 23:02:00,
2013-12-17 15:12:00,77.6,43.7,30.00,SE,142,1.0,1.0,30,0.00,,,0.00,Wunderground v.1.15,2013-12-17 23:12:00,
2013-12-17 15:22:00,77.3,43.4,30.00,SSE,160,1.0,1.0,30,0.00,,,0.00,Wunderground v.1.15,2013-12-17 23:22:00,
2013-12-17 15:32:00,77.1,44.1,30.00,SSE,160,0.0,2.0,31,0.00,,,0.00,Wunderground v.1.15,2013-12-17 23:32:00,
2013-12-17 15:42:00,76.7,44.6,30.00,SSE,160,0.0,0.0,32,0.00,,,0.00,Wunderground v.1.15,2013-12-17 23:42:00,
2013-12-17 15:47:00,76.6,45.3,29.99,SSE,160,0.0,0.0,33,0.00,,,0.00,Wunderground v.1.15,2013-12-17 23:47:00,
2013-12-17 15:57:00,76.2,45.8,30.00,SSE,160,0.0,0.0,34,0.00,,,0.00,Wunderground v.1.15,2013-12-17 23:57:00,
2013-12-17 16:07:00,76.0,46.4,29.99,SSE,160,0.0,4.0,35,0.00,,,0.00,Wunderground v.1.15,2013-12-18 00:07:00,
2013-12-17 16:17:00,75.3,46.5,29.99,SSE,160,0.0,4.0,36,0.00,,,0.00,Wunderground v.1.15,2013-12-18 00:17:00,
2013-12-17 16:22:00,74.9,46.9,29.99,SSE,160,0.0,0.0,37,0.00,,,0.00,Wunderground v.1.15,2013-12-18 00:22:00,
2013-12-17 16:32:00,74.0,47.5,29.99,SSE,160,0.0,0.0,39,0.00,,,0.00,Wunderground v.1.15,2013-12-18 00:32:00,
2013-12-17 16:37:00,73.6,47.8,29.99,SSE,160,0.0,0.0,40,0.00,,,0.00,Wunderground v.1.15,2013-12-18 00:37:00,
2013-12-17 16:47:00,72.6,48.2,29.99,SSE,160,0.0,0.0,42,0.00,,,0.00,Wunderground v.1.15,2013-12-18 00:47:00,
2013-12-17 16:52:00,72.1,48.4,29.99,SSE,160,0.0,0.0,43,0.00,,,0.00,Wunderground v.1.15,2013-12-18 00:52:00,
2013-12-17 17:02:00,71.2,48.2,29.99,SSE,160,0.0,4.0,44,0.00,,,0.00,Wunderground v.1.15,2013-12-18 01:02:00,
2013-12-17 17:12:00,70.0,48.3,29.99,SSE,160,0.0,4.0,46,0.00,,,0.00,Wunderground v.1.15,2013-12-18 01:12:00,
2013-12-17 17:22:00,69.1,48.0,29.99,SSE,160,0.0,0.0,47,0.00,,,0.00,Wunderground v.1.15,2013-12-18 01:22:00,
2013-12-17 17:32:00,68.3,48.4,29.99,SSE,160,0.0,0.0,49,0.00,,,0.00,Wunderground v.1.15,2013-12-18 01:32:00,
2013-12-17 17:42:00,67.6,48.8,29.99,SSE,160,0.0,1.0,51,0.00,,,0.00,Wunderground v.1.15,2013-12-18 01:42:00,
2013-12-17 17:52:00,66.9,48.2,29.99,SSE,160,0.0,0.0,51,0.00,,,0.00,Wunderground v.1.15,2013-12-18 01:52:00,
2013-12-17 18:02:00,66.5,47.8,29.99,SSE,160,0.0,0.0,51,0.00,,,0.00,Wunderground v.1.15,2013-12-18 02:02:00,
2013-12-17 18:07:00,66.3,48.1,29.99,SSE,160,0.0,0.0,52,0.00,,,0.00,Wunderground v.1.15,2013-12-18 02:07:00,
2013-12-17 18:17:00,65.9,47.8,29.98,SSE,160,0.0,0.0,52,0.00,,,0.00,Wunderground v.1.15,2013-12-18 02:17:00,
2013-12-17 18:22:00,65.6,47.5,29.99,SSE,160,0.0,0.0,52,0.00,,,0.00,Wunderground v.1.15,2013-12-18 02:22:00,
2013-12-17 18:32:00,65.1,47.5,29.99,SSE,160,0.0,0.0,53,0.00,,,0.00,Wunderground v.1.15,2013-12-18 02:32:00,
2013-12-17 18:42:00,64.8,47.8,29.99,SSE,160,0.0,0.0,54,0.00,,,0.00,Wunderground v.1.15,2013-12-18 02:42:00,
2013-12-17 18:52:00,64.4,46.9,29.99,SSE,160,0.0,0.0,53,0.00,,,0.00,Wunderground v.1.15,2013-12-18 02:52:00,
2013-12-17 19:02:00,64.1,47.6,29.99,SSE,160,0.0,2.0,55,0.00,,,0.00,Wunderground v.1.15,2013-12-18 03:02:00,
2013-12-17 19:12:00,63.9,46.9,29.99,SSE,160,0.0,2.0,54,0.00,,,0.00,Wunderground v.1.15,2013-12-18 03:12:00,
2013-12-17 19:22:00,63.8,47.8,29.99,SSE,160,1.0,1.0,56,0.00,,,0.00,Wunderground v.1.15,2013-12-18 03:22:00,
2013-12-17 19:32:00,63.6,47.6,30.00,SSE,160,0.0,0.0,56,0.00,,,0.00,Wunderground v.1.15,2013-12-18 03:32:00,
2013-12-17 19:42:00,63.3,47.3,30.00,SSE,160,0.0,0.0,56,0.00,,,0.00,Wunderground v.1.15,2013-12-18 03:42:00,
2013-12-17 19:47:00,63.2,47.2,30.00,SSE,160,0.0,0.0,56,0.00,,,0.00,Wunderground v.1.15,2013-12-18 03:47:00,
2013-12-17 19:57:00,63.0,47.1,30.00,SSE,160,0.0,1.0,56,0.00,,,0.00,Wunderground v.1.15,2013-12-18 03:57:00,
2013-12-17 20:02:00,62.8,47.3,30.00,SSE,160,0.0,2.0,57,0.00,,,0.00,Wunderground v.1.15,2013-12-18 04:02:00,
2013-12-17 20:12:00,62.6,47.6,30.00,SSE,160,0.0,2.0,58,0.00,,,0.00,Wunderground v.1.15,2013-12-18 04:12:00,
2013-12-17 20:17:00,62.6,47.6,30.00,SSE,160,0.0,2.0,58,0.00,,,0.00,Wunderground v.1.15,2013-12-18 04:17:00,
2013-12-17 20:27:00,62.3,47.8,30.00,SSE,160,0.0,0.0,59,0.00,,,0.00,Wunderground v.1.15,2013-12-18 04:27:00,
2013-12-17 20:32:00,62.1,48.0,30.00,SSE,160,0.0,0.0,60,0.00,,,0.00,Wunderground v.1.15,2013-12-18 04:32:00,
2013-12-17 20:42:00,62.0,47.5,30.01,SSE,160,0.0,0.0,59,0.00,,,0.00,Wunderground v.1.15,2013-12-18 04:42:00,
2013-12-17 20:52:00,62.1,47.6,30.00,SSE,160,0.0,0.0,59,0.00,,,0.00,Wunderground v.1.15,2013-12-18 04:52:00,
2013-12-17 21:02:00,62.1,47.6,30.00,SSE,160,1.0,1.0,59,0.00,,,0.00,Wunderground v.1.15,2013-12-18 05:02:00,
2013-12-17 21:07:00,62.1,47.6,30.00,SSE,160,1.0,1.0,59,0.00,,,0.00,Wunderground v.1.15,2013-12-18 05:07:00,
2013-12-17 21:12:00,62.1,47.6,30.00,SSE,160,0.0,1.0,59,0.00,,,0.00,Wunderground v.1.15,2013-12-18 05:12:00,
2013-12-17 21:22:00,62.1,47.6,30.00,SSE,160,0.0,0.0,59,0.00,,,0.00,Wunderground v.1.15,2013-12-18 05:22:00,
2013-12-17 21:32:00,61.8,47.8,30.00,SSE,160,1.0,1.0,60,0.00,,,0.00,Wunderground v.1.15,2013-12-18 05:32:00,
2013-12-17 21:42:00,61.7,47.7,30.00,SSE,160,0.0,0.0,60,0.00,,,0.00,Wunderground v.1.15,2013-12-18 05:42:00,
2013-12-17 21:52:00,62.0,47.5,30.00,SSE,160,0.0,0.0,59,0.00,,,0.00,Wunderground v.1.15,2013-12-18 05:52:00,
2013-12-17 22:02:00,62.4,47.4,30.00,SSE,162,1.0,2.0,58,0.00,,,0.00,Wunderground v.1.15,2013-12-18 06:02:00,
2013-12-17 22:12:00,62.6,47.6,30.00,SSE,162,1.0,1.0,58,0.00,,,0.00,Wunderground v.1.15,2013-12-18 06:12:00,
2013-12-17 22:22:00,62.6,48.1,30.00,SE,139,1.0,1.0,59,0.00,,,0.00,Wunderground v.1.15,2013-12-18 06:22:00,
2013-12-17 22:32:00,62.6,49.0,30.00,SE,139,0.0,0.0,61,0.00,,,0.00,Wunderground v.1.15,2013-12-18 06:32:00,
2013-12-17 22:42:00,62.5,49.3,30.00,SE,140,0.0,0.0,62,0.00,,,0.00,Wunderground v.1.15,2013-12-18 06:42:00,
2013-12-17 22:52:00,62.3,49.5,30.01,SE,140,0.0,1.0,63,0.00,,,0.00,Wunderground v.1.15,2013-12-18 06:52:00,
2013-12-17 23:02:00,62.0,50.1,30.00,East,99,1.0,1.0,65,0.00,,,0.00,Wunderground v.1.15,2013-12-18 07:02:00,
2013-12-17 23:12:00,61.9,50.8,30.00,ESE,103,0.0,2.0,67,0.00,,,0.00,Wunderground v.1.15,2013-12-18 07:12:00,
2013-12-17 23:22:00,61.7,51.0,30.00,ESE,103,0.0,0.0,68,0.00,,,0.00,Wunderground v.1.15,2013-12-18 07:22:00,
2013-12-17 23:32:00,61.4,51.1,29.99,ESE,103,1.0,2.0,69,0.00,,,0.00,Wunderground v.1.15,2013-12-18 07:32:00,
2013-12-17 23:37:00,61.4,51.1,29.99,ESE,103,1.0,2.0,69,0.00,,,0.00,Wunderground v.1.15,2013-12-18 07:37:00,
2013-12-17 23:47:00,61.5,51.2,29.99,ENE,66,2.0,2.0,69,0.00,,,0.00,Wunderground v.1.15,2013-12-18 07:47:00,
2013-12-17 23:52:00,61.5,51.2,29.99,ENE,66,1.0,1.0,69,0.00,,,0.00,Wunderground v.1.15,2013-12-18 07:52:00,